Location: Newark
(36.0797°N, 3.9744°E)
Time: 13:13:16
(UTC+00:00)

SR - Visible Passes

Search period start: 10 December 2019 00:00
Search period end: 20 December 2019 00:00
Orbit: 573 x 882 km, 66.7° (Epoch: 10 December)

Date Brightness Start Highest point End Pass type
(mag) Time Alt. Az. Time Alt. Az. Time Alt. Az.
10 Dec ? 17:02:24 10° N 17:06:40 20° NE 17:10:46 10° E visible
10 Dec ? 18:43:33 10° NW 18:49:18 63° WSW 18:53:03 20° S visible
11 Dec ? 17:53:51 10° NNW 17:59:40 66° ENE 18:05:04 10° SE visible
11 Dec ? 19:37:53 10° WNW 19:41:02 15° WSW 19:44:05 10° SW visible
12 Dec ? 17:04:29 10° N 17:09:47 34° NE 17:14:47 10° ESE visible
12 Dec ? 18:46:45 10° NW 18:51:49 32° WSW 18:56:32 10° S visible
13 Dec ? 17:56:37 10° NNW 18:02:23 67° WSW 18:07:42 10° SSE visible
14 Dec ? 17:06:57 10° NNW 17:12:43 62° ENE 17:18:05 10° SE visible
14 Dec ? 18:50:46 10° WNW 18:54:08 16° WSW 18:57:23 10° SW visible
15 Dec ? 17:59:47 10° NW 18:04:54 34° WSW 18:09:41 10° S visible
16 Dec ? 17:09:41 10° NNW 17:15:27 71° WSW 17:20:46 10° SSE visible
17 Dec ? 05:56:26 10° SE 05:59:52 17° ESE 06:03:26 10° ENE visible
17 Dec ? 18:03:40 10° WNW 18:07:14 17° WSW 18:10:40 10° SW visible
18 Dec ? 17:12:48 10° NW 17:17:59 36° WSW 17:22:49 10° S visible
19 Dec ? 05:57:24 10° S 06:02:13 33° ESE 06:07:20 10° NE visible
